Weather History for Jefferson City, MO

Change the Weather History Date:

Tuesday, July 2, 2013

  Actual Average Record
Temperature  
Mean Temperature 71 °F -  
Max Temperature 81 °F 88 °F 108 °F (1980)
Min Temperature 61 °F 65 °F 46 °F (1959)
Cooling Degree Days 6    
Growing Degree Days 21 (Base 50)    
Moisture  
Dew Point 52 °F    
Average Humidity 53    
Maximum Humidity 72    
Minimum Humidity 33    
Precipitation  
Precipitation 0.00 in - - ()
Sea Level Pressure  
Sea Level Pressure 30.01 in    
Wind  
Wind Speed 6 mph (NNE)    
Max Wind Speed 23 mph    
Max Gust Speed 79 mph    
Visibility 10 miles    
Events      
Averages and records for this station are not official NWS values.
T = Trace of Precipitation, MM = Missing Value Source: NWS Daily Summary

Daily Weather History Graph

Daily Weather History Graph

Search for Another Location

Airport:

Trip Planner

Search our weather history database for the weather conditions in past years. The results will help you decide how hot, cold, wet, or windy it might be!

Date:

Astronomy

Jul. 02, 2013 Rise Set
Actual Time 5:48 AM CDT 8:36 PM CDT
Civil Twilight 5:16 AM CDT 9:08 PM CDT
Nautical Twilight 4:37 AM CDT 9:48 PM CDT
Astronomical Twilight 3:51 AM CDT 10:33 PM CDT
Moon 1:49 AM CDT (7/2) 3:52 PM CDT (7/2)
Length of Visible Light 15h 51m
Length of Day
14h 48m
Waning Crescent, 26% of the Moon is Illuminated
Jul 2
Waning Crescent
Jul 8
New
Jul 15
First Quarter
Jul 22
Full
Jul 29
Last Quarter

Hourly Weather History & Observations

Time (CDT) Temp. Dew Point Humidity Pressure Visibility Wind Dir Wind Speed Gust Speed Precip Events Conditions
12:53 AM 68.0 °F 52.0 °F 56% 29.98 in 10.0 mi North 3.5 mph - N/A   Clear
1:53 AM 66.0 °F 51.1 °F 59% 29.98 in 10.0 mi NW 3.5 mph - N/A   Clear
2:53 AM 66.0 °F 50.0 °F 56% 29.97 in 10.0 mi North 5.8 mph - N/A   Clear
3:53 AM 64.9 °F 50.0 °F 58% 29.98 in 10.0 mi NNW 5.8 mph - N/A   Partly Cloudy
4:53 AM 63.0 °F 51.1 °F 65% 29.99 in 10.0 mi North 6.9 mph - N/A   Clear
5:53 AM 62.1 °F 51.1 °F 67% 30.00 in 10.0 mi NW 3.5 mph - N/A   Clear
6:53 AM 61.0 °F 52.0 °F 72% 30.02 in 10.0 mi WNW 4.6 mph - N/A   Clear
7:53 AM 63.0 °F 52.0 °F 67% 30.03 in 10.0 mi SW 23.0 mph 79.4 mph N/A   Clear
9:53 AM 69.1 °F 54.0 °F 58% 30.04 in 10.0 mi Calm Calm - N/A   Clear
10:53 AM 73.9 °F 53.1 °F 48% 30.03 in 10.0 mi NNW 11.5 mph 17.3 mph N/A   Clear
11:53 AM 75.9 °F 50.0 °F 40% 30.04 in 10.0 mi North 12.7 mph 19.6 mph N/A   Clear
12:53 PM 77.0 °F 46.9 °F 34% 30.03 in 10.0 mi NNE 15.0 mph 25.3 mph N/A   Clear
1:53 PM 78.1 °F 46.9 °F 33% 30.02 in 10.0 mi NNE 13.8 mph 21.9 mph N/A   Clear
2:53 PM 80.1 °F 48.9 °F 34% 30.01 in 10.0 mi North 10.4 mph 17.3 mph N/A   Clear
3:53 PM 81.0 °F 48.9 °F 33% 30.00 in 10.0 mi NE 8.1 mph - N/A   Scattered Clouds
4:53 PM 79.0 °F 50.0 °F 36% 30.00 in 10.0 mi ENE 6.9 mph - N/A   Scattered Clouds
5:53 PM 79.0 °F 52.0 °F 39% 29.99 in 10.0 mi East 4.6 mph - N/A   Partly Cloudy
6:53 PM 78.1 °F 54.0 °F 43% 30.00 in 10.0 mi East 4.6 mph - N/A   Clear
7:53 PM 75.9 °F 57.0 °F 52% 30.00 in 10.0 mi Calm Calm - N/A   Clear
8:53 PM 72.0 °F 55.9 °F 57% 30.00 in 10.0 mi ESE 3.5 mph - N/A   Clear
9:53 PM 68.0 °F 57.0 °F 68% 30.02 in 10.0 mi Calm Calm - N/A   Clear
10:53 PM 66.0 °F 55.9 °F 70% 30.02 in 10.0 mi Calm Calm - N/A   Clear
11:53 PM 66.9 °F 55.9 °F 68% 30.02 in 10.0 mi ESE 4.6 mph - N/A   Clear